Franklin, PA

12:58 PM EST on December 11, 2017 (GMT -0500)
Venango Regional

Weather History for KFKL - April, 2014

Change the Weather History Date:

Tuesday, April 29, 2014

  Actual Average Record
Temperature  
Mean Temperature 48 °F -  
Max Temperature 53 °F 63 °F 87 °F (1986)
Min Temperature 44 °F 37 °F 22 °F (1946)
Degree Days  
Heating Degree Days 16    
Moisture  
Dew Point 41 °F    
Average Humidity 79    
Maximum Humidity 87    
Minimum Humidity 66    
Precipitation  
Precipitation 0.45 in - - ()
Sea Level Pressure  
Sea Level Pressure 29.92 in    
Wind  
Wind Speed 18 mph (SE)    
Max Wind Speed 30 mph    
Max Gust Speed 40 mph    
Visibility 10 miles    
Events      
Averages and records for this station are not official NWS values.
T = Trace of Precipitation, MM = Missing Value Source: NWS Daily Summary

Daily Weather History Graph

Daily Weather History Graph

Search for Another Location

Airport or City:

Trip Planner

Search our weather history database for the weather conditions in past years. The results will help you decide how hot, cold, wet, or windy it might be!

Date:

Astronomy

Apr. 29, 2014 Rise Set
Actual Time 6:19 AM EDT 8:14 PM EDT
Civil Twilight 5:49 AM EDT 8:44 PM EDT
Nautical Twilight 5:13 AM EDT 9:21 PM EDT
Astronomical Twilight 4:33 AM EDT 10:01 PM EDT
Moon 6:36 AM EDT (4/29) 8:53 PM EDT (4/29)
Length of Visible Light 14h 55m
Length of Day
13h 55m
New Moon, 0% of the Moon is Illuminated
Apr 29
New Moon
May 6
First Quarter
May 14
Full
May 21
Last Quarter
May 28
New

Hourly Weather History & Observations

Time (EDT) Temp. Windchill Dew Point Humidity Pressure Visibility Wind Dir Wind Speed Gust Speed Precip Events Conditions
12:15 AM 46.4 °F 40.4 °F 41.0 °F 81% 29.90 in 10.0 mi SE 13.8 mph 18.4 mph N/A   Overcast
12:35 AM 48.2 °F - 41.0 °F 76% 29.89 in 10.0 mi ESE 17.3 mph 23.0 mph N/A   Overcast
12:55 AM 48.2 °F - 41.0 °F 76% 29.89 in 10.0 mi ESE 18.4 mph 25.3 mph N/A   Overcast
1:15 AM 48.2 °F - 41.0 °F 76% 29.89 in 10.0 mi ESE 13.8 mph - N/A   Overcast
1:35 AM 48.2 °F - 41.0 °F 76% 29.89 in 10.0 mi ESE 13.8 mph 24.2 mph N/A   Overcast
1:55 AM 48.2 °F - 41.0 °F 76% 29.88 in 10.0 mi ESE 12.7 mph 26.5 mph N/A   Overcast
2:15 AM 48.2 °F - 42.8 °F 82% 29.89 in 10.0 mi ESE 16.1 mph - N/A   Overcast
2:35 AM 48.2 °F - 41.0 °F 76% 29.89 in 10.0 mi ESE 15.0 mph 20.7 mph N/A   Overcast
2:55 AM 48.2 °F - 42.8 °F 82% 29.89 in 10.0 mi SE 17.3 mph - N/A   Overcast
3:15 AM 48.2 °F - 42.8 °F 82% 29.89 in 10.0 mi ESE 11.5 mph 20.7 mph N/A   Overcast
3:35 AM 48.2 °F - 42.8 °F 82% 29.89 in 10.0 mi ESE 13.8 mph 21.9 mph N/A   Overcast
3:55 AM 48.2 °F - 42.8 °F 82% 29.89 in 10.0 mi ESE 16.1 mph 23.0 mph N/A   Overcast
4:15 AM 46.4 °F 40.1 °F 42.8 °F 87% 29.88 in 10.0 mi ESE 15.0 mph 21.9 mph N/A   Overcast
4:35 AM 46.4 °F 39.8 °F 42.8 °F 87% 29.88 in 10.0 mi ESE 16.1 mph 21.9 mph 0.01 in   Overcast
4:55 AM 46.4 °F 39.8 °F 42.8 °F 87% 29.88 in 10.0 mi ESE 16.1 mph 24.2 mph 0.01 in   Overcast
5:15 AM 46.4 °F 39.5 °F 42.8 °F 87% 29.86 in 10.0 mi ESE 17.3 mph 25.3 mph N/A   Overcast
5:35 AM 46.4 °F 39.8 °F 42.8 °F 87% 29.85 in 10.0 mi ESE 16.1 mph 25.3 mph 0.01 in   Overcast
5:55 AM 46.4 °F 39.5 °F 42.8 °F 87% 29.85 in 10.0 mi ESE 17.3 mph 26.5 mph 0.02 in   Overcast
6:15 AM 46.4 °F 39.5 °F 42.8 °F 87% 29.85 in 10.0 mi ESE 17.3 mph 27.6 mph N/A   Overcast
6:35 AM 46.4 °F 38.3 °F 42.8 °F 87% 29.85 in 10.0 mi ESE 23.0 mph 33.4 mph N/A   Overcast
6:55 AM 46.4 °F 39.0 °F 42.8 °F 87% 29.85 in 9.0 mi ESE 19.6 mph 26.5 mph 0.01 in   Overcast
7:15 AM 46.4 °F 38.7 °F 42.8 °F 87% 29.87 in 9.0 mi SE 20.7 mph 32.2 mph 0.02 in   Overcast
7:35 AM 46.4 °F 37.9 °F 42.8 °F 87% 29.86 in 10.0 mi SE 25.3 mph 34.5 mph 0.05 in   Overcast
7:55 AM 46.4 °F 38.7 °F 42.8 °F 87% 29.86 in 9.0 mi SE 20.7 mph 33.4 mph 0.06 in   Overcast
8:15 AM 46.4 °F 38.7 °F 42.8 °F 87% 29.86 in 9.0 mi ESE 20.7 mph 36.8 mph 0.02 in   Overcast
8:35 AM 46.4 °F 38.3 °F 42.8 °F 87% 29.86 in 6.0 mi ESE 23.0 mph 40.3 mph 0.05 in   Overcast
8:55 AM 46.4 °F 38.1 °F 42.8 °F 87% 29.86 in 6.0 mi SE 24.2 mph 31.1 mph 0.08 in   Overcast
9:15 AM 46.4 °F 38.3 °F 42.8 °F 87% 29.85 in 5.0 mi ESE 23.0 mph 35.7 mph 0.05 in   Overcast
9:35 AM 46.4 °F 38.5 °F 42.8 °F 87% 29.85 in 9.0 mi ESE 21.9 mph 31.1 mph 0.08 in   Overcast
9:55 AM 46.4 °F 38.3 °F 42.8 °F 87% 29.85 in 6.0 mi SE 23.0 mph 39.1 mph 0.10 in   Overcast
10:15 AM 46.4 °F 38.5 °F 42.8 °F 87% 29.85 in 10.0 mi ESE 21.9 mph 34.5 mph N/A   Overcast
10:35 AM 46.4 °F 38.3 °F 41.0 °F 81% 29.85 in 8.0 mi ESE 23.0 mph 35.7 mph N/A   Overcast
10:55 AM 46.4 °F 38.3 °F 41.0 °F 81% 29.86 in 6.0 mi SE 23.0 mph 38.0 mph 0.03 in   Overcast
11:15 AM 46.4 °F 38.3 °F 41.0 °F 81% 29.86 in 9.0 mi SE 23.0 mph 33.4 mph 0.02 in   Overcast
11:35 AM 46.4 °F 38.3 °F 41.0 °F 81% 29.85 in 9.0 mi ESE 23.0 mph 34.5 mph 0.04 in   Overcast
11:55 AM 46.4 °F 38.3 °F 41.0 °F 81% 29.86 in 9.0 mi ESE 23.0 mph 32.2 mph 0.06 in   Overcast
12:15 PM 46.4 °F 38.3 °F 41.0 °F 81% 29.86 in 9.0 mi SE 23.0 mph 34.5 mph 0.02 in   Overcast
12:35 PM 46.4 °F 38.1 °F 41.0 °F 81% 29.85 in 10.0 mi SE 24.2 mph 36.8 mph 0.04 in   Overcast
12:55 PM 46.4 °F 37.9 °F 41.0 °F 81% 29.86 in 10.0 mi SE 25.3 mph 40.3 mph 0.05 in   Overcast
1:15 PM 46.4 °F 37.2 °F 42.8 °F 87% 29.87 in 3.0 mi ESE 29.9 mph 33.4 mph 0.03 in   Overcast
1:35 PM 46.4 °F 39.2 °F 41.0 °F 81% 29.89 in 10.0 mi SE 18.4 mph 29.9 mph 0.03 in   Overcast
1:55 PM 46.4 °F 38.5 °F 42.8 °F 87% 29.89 in 10.0 mi SE 21.9 mph 32.2 mph 0.03 in   Overcast
2:15 PM 48.2 °F - 42.8 °F 82% 29.92 in 10.0 mi SE 18.4 mph 33.4 mph N/A   Overcast
2:35 PM 48.2 °F - 42.8 °F 82% 29.92 in 10.0 mi SE 23.0 mph 33.4 mph N/A   Mostly Cloudy
2:55 PM 48.2 °F - 42.8 °F 82% 29.92 in 10.0 mi SE 21.9 mph 28.8 mph N/A   Overcast
3:15 PM 50.0 °F - 42.8 °F 76% 29.93 in 10.0 mi SE 20.7 mph 28.8 mph N/A   Overcast
3:35 PM 51.8 °F - 42.8 °F 71% 29.93 in 10.0 mi SE 25.3 mph 33.4 mph N/A   Overcast
3:55 PM 51.8 °F - 44.6 °F 76% 29.93 in 10.0 mi SE 19.6 mph 32.2 mph N/A   Overcast
4:15 PM 51.8 °F - 42.8 °F 71% 29.95 in 10.0 mi SE 20.7 mph 29.9 mph N/A   Overcast
4:35 PM 51.8 °F - 44.6 °F 76% 29.95 in 10.0 mi SE 20.7 mph 33.4 mph N/A   Overcast
5:15 PM 51.8 °F - 42.8 °F 71% 29.96 in 10.0 mi SE 25.3 mph 36.8 mph N/A   Overcast
5:35 PM 51.8 °F - 42.8 °F 71% 29.97 in 10.0 mi SE 26.5 mph 33.4 mph N/A   Mostly Cloudy
5:55 PM 53.6 °F - 42.8 °F 67% 29.96 in 10.0 mi SE 24.2 mph 31.1 mph N/A   Mostly Cloudy
6:15 PM 51.8 °F - 42.8 °F 71% 29.98 in 10.0 mi SE 19.6 mph 34.5 mph N/A   Scattered Clouds
6:35 PM 51.8 °F - 41.0 °F 67% 29.99 in 10.0 mi SE 18.4 mph 33.4 mph N/A   Scattered Clouds
6:55 PM 50.0 °F - 41.0 °F 71% 29.99 in 10.0 mi ESE 17.3 mph 32.2 mph N/A   Mostly Cloudy
7:15 PM 50.0 °F - 39.2 °F 66% 30.00 in 10.0 mi SE 23.0 mph 31.1 mph N/A   Overcast
7:35 PM 48.2 °F - 39.2 °F 71% 30.01 in 10.0 mi SE 21.9 mph 27.6 mph N/A   Overcast
7:55 PM 48.2 °F - 39.2 °F 71% 30.01 in 10.0 mi SE 23.0 mph 34.5 mph N/A   Overcast
8:15 PM 48.2 °F - 39.2 °F 71% 30.01 in 10.0 mi ESE 18.4 mph 33.4 mph N/A   Overcast
8:35 PM 46.4 °F 38.5 °F 39.2 °F 76% 30.02 in 10.0 mi SE 21.9 mph 33.4 mph N/A   Overcast
8:55 PM 46.4 °F 38.7 °F 39.2 °F 76% 30.00 in 10.0 mi ESE 20.7 mph 28.8 mph N/A   Overcast
9:15 PM 46.4 °F 40.7 °F 39.2 °F 76% 30.02 in 10.0 mi ESE 12.7 mph 26.5 mph N/A   Overcast
9:35 PM 46.4 °F 39.5 °F 37.4 °F 71% 30.02 in 10.0 mi ESE 17.3 mph 34.5 mph N/A   Overcast
9:55 PM 46.4 °F 37.9 °F 37.4 °F 71% 30.02 in 10.0 mi ESE 25.3 mph 31.1 mph N/A   Overcast
10:15 PM 46.4 °F 40.1 °F 37.4 °F 71% 30.04 in 10.0 mi ESE 15.0 mph 29.9 mph N/A   Overcast
10:35 PM 46.4 °F 40.7 °F 37.4 °F 71% 30.04 in 10.0 mi ESE 12.7 mph 27.6 mph N/A   Overcast
10:55 PM 44.6 °F 36.1 °F 37.4 °F 76% 30.03 in 10.0 mi SE 21.9 mph 32.2 mph N/A   Overcast
11:15 PM 46.4 °F 39.2 °F 37.4 °F 71% 30.03 in 10.0 mi SE 18.4 mph 31.1 mph N/A   Overcast
11:35 PM 46.4 °F 39.0 °F 37.4 °F 71% 30.04 in 10.0 mi ESE 19.6 mph 26.5 mph N/A   Overcast
11:55 PM 46.4 °F 39.0 °F 37.4 °F 71% 30.04 in 10.0 mi ESE 19.6 mph 28.8 mph N/A   Overcast